{"data":{"norad_id":68897,"intl_designator":"2026-097C","name":"STARLINK-37534","alt_names":[],"object_type":"PAYLOAD","status":"ACTIVE","operator":null,"country":"US","launch_date":"2026-04-30","launch_site_code":"AFWTR","launch_vehicle":null,"mission":null,"orbit_class":"UNKNOWN","rcs_meters":null,"size_class":null,"mass_kg":null,"dimensions":null,"purposes":["comms"],"wikipedia_slug":null,"has_3d_model":false,"image_url":null,"decayed_at":null,"tle_current":{"epoch":"2026-05-25T01:46:25.783392Z","epoch_age_seconds":64689,"freshness":"FRESH","line1":"1 68897U 26097C   26145.07390953  .00058228  00000+0  10642-2 0  9995","line2":"2 68897  97.2859 340.7611 0001906  95.8468 264.3001 15.49191980  3936","mean_motion":15.4919198,"eccentricity":0.0001906,"inclination_deg":97.2859,"raan_deg":340.7611,"arg_perigee_deg":95.8468,"mean_anomaly_deg":264.3001,"bstar":0.0010642,"rev_number":393,"period_min":92.951681818027,"perigee_km":417.79300038924,"apogee_km":420.3841027695,"semimajor_km":6797.2255515794,"source":"CELESTRAK","updated_at":"2026-05-25T13:38:22.066427Z"}}}